Location: Brahman Valley
(40.6513°N, 111.8855°W)
Time: 01:08:01
(UTC+00:00)

Courier 1B - Visible Passes

Search period start: 12 May 2021 00:00
Search period end: 22 May 2021 00:00
Orbit: 962 x 1209 km, 28.3° (Epoch: 11 May)

Date Brightness Start Highest point End Pass type
(mag) Time Alt. Az. Time Alt. Az. Time Alt. Az.
12 May 9.3 10:29:47 17° S 10:32:57 21° SSE 10:38:31 10° ESE visible
13 May 9.4 09:39:07 17° SSE 09:39:18 17° SSE 09:44:02 10° ESE visible
13 May 8.9 11:26:07 10° SW 11:32:34 30° S 11:39:10 10° ESE visible
14 May 9.8 08:48:27 11° SE 08:48:27 11° SE 08:49:03 10° SE visible
14 May 9.0 10:35:19 19° SSW 10:38:51 27° SSE 10:45:08 10° ESE visible
15 May 9.0 09:44:38 23° SSE 09:45:10 24° SSE 09:50:59 10° ESE visible
15 May 8.8 11:31:58 10° WSW 11:38:33 32° S 11:45:20 10° ESE visible
16 May 9.5 08:53:57 17° SE 08:53:57 17° SE 08:56:39 10° ESE visible
16 May 8.7 10:40:50 20° SW 10:44:48 31° S 10:51:25 10° ESE visible
17 May 8.7 09:50:10 28° S 09:51:06 29° S 09:57:26 10° ESE visible
18 May 9.1 08:59:32 22° SE 08:59:32 22° SE 09:03:21 10° ESE visible
18 May 8.7 10:46:25 18° SW 10:50:49 32° S 10:57:28 10° ESE visible
19 May 9.9 08:08:56 11° ESE 08:08:56 11° ESE 08:09:08 10° ESE visible
19 May 8.5 09:55:49 29° SSW 09:57:06 31° S 10:03:36 10° ESE visible
20 May 8.9 09:05:17 26° SSE 09:05:17 26° SSE 09:09:41 10° ESE visible
20 May 8.7 10:52:10 16° WSW 10:56:50 30° S 11:03:17 10° SE visible
21 May 9.7 08:14:49 13° ESE 08:14:49 13° ESE 08:15:40 10° ESE visible
21 May 8.5 10:01:43 28° SSW 10:03:08 31° S 10:09:32 10° SE visible
